Location: Sungai Bunut
(2.6333°N, 113.7333°E)
Time: 14:23:59
(UTC+00:00)

Vanguard 2 Rocket - Visible Passes

Search period start: 03 December 2023 00:00
Search period end: 13 December 2023 00:00
Orbit: 553 x 3312 km, 32.9° (Epoch: 03 December)

Date Brightness Start Highest point End Pass type
(mag) Time Alt. Az. Time Alt. Az. Time Alt. Az.
03 Dec 9.8 11:37:33 10° NW 11:50:39 23° N 11:54:28 21° NNE visible
03 Dec 10.2 13:56:26 10° NW 14:00:07 18° NW 14:00:07 18° NW visible
04 Dec 10.1 10:31:43 10° NW 10:45:20 22° N 10:56:23 10° NE visible
04 Dec 9.6 12:51:58 10° NW 13:02:18 31° N 13:02:18 31° N visible
05 Dec 9.5 11:47:11 10° NW 12:02:03 29° NNE 12:04:35 28° NNE visible
05 Dec 10.1 14:05:42 10° NW 14:10:15 21° NW 14:10:15 21° NW visible
06 Dec 9.9 10:42:06 10° NW 10:57:03 26° NNE 11:06:58 14° ENE visible
06 Dec 9.4 13:01:07 10° NW 13:12:38 40° NNW 13:12:38 40° NNW visible
07 Dec 9.2 11:56:29 10° NW 12:13:05 39° NNE 12:15:08 37° NE visible
07 Dec 10.0 14:15:15 10° NW 14:20:50 25° NW 14:20:50 25° NW visible
08 Dec 9.7 10:51:49 10° NW 11:08:25 32° NNE 11:17:46 18° ENE visible
08 Dec 9.1 13:10:25 10° NW 13:23:29 52° NNW 13:23:29 52° NNW visible
09 Dec 8.8 12:05:43 10° NW 12:23:44 52° NNE 12:26:17 48° ENE visible
09 Dec 9.9 14:25:14 10° WNW 14:32:00 28° WNW 14:32:00 28° WNW visible
10 Dec 9.6 11:01:12 10° NW 11:19:21 42° NNE 11:29:14 20° E visible
10 Dec 8.8 13:19:57 10° NW 13:34:58 69° WNW 13:34:58 69° WNW visible
11 Dec 8.8 12:15:02 10° NW 12:34:00 70° NNE 12:38:08 52° E visible
11 Dec 9.8 14:35:49 10° WNW 14:43:54 30° W 14:43:54 30° W visible
12 Dec 9.3 11:10:29 10° NW 11:29:53 55° NNE 11:41:29 17° E visible
12 Dec 8.8 13:29:53 10° WNW 13:47:02 65° SW 13:47:16 64° SW visible
